Regional Weather Roundup
Issued by NWS Newport/Morehead, NC

Current Version | Previous Version | Graphics & Text | Print | Product List | Glossary Off
Versions: 1 2 3 4 5 6 7 8 9 10 11 12 13 14 15 16 17 18 19 20 21 22 23 24 25 26 27 28 29 30 31 32 33 34 35 36 37 38 39 40 41 42 43 44 45 46 47 48 49 50

000
ASUS42 KMHX 301813
RWRMHX
WEATHER ROUNDUP FOR EASTERN NORTH CAROLINA
NATIONAL WEATHER SERVICE NEWPORT/MOREHEAD CITY NC
200 PM EDT SUN AUG 30 2015

NOTE: "FAIR" INDICATES FEW OR NO CLOUDS BELOW 12,000 FEET
WITH NO SIGNIFICANT WEATHER AND/OR OBSTRUCTIONS TO VISIBILITY

NCZ015>017-031-032-045>047-102-103-301900-
NORTH COAST

CITY           SKY/WX    TMP DP  RH WIND       PRES   REMARKS
EDENTON        MOSUNNY   83  67  58 S7        30.13F
ELIZABETH CITY SUNNY     86  58  38 VRB7      30.14F
KITTY HAWK     PTCLDY    84  69  60 N6        30.13F
MANTEO         PTSUNNY   80  71  72 NE8       30.14F

$$

NCZ045>047-081-094-103-104-301900-
CENTRAL COAST

CITY           SKY/WX    TMP DP  RH WIND       PRES   REMARKS
FRISCO         CLOUDY    82  73  74 NE5       30.14F
SWANQUARTER    NOT AVBL

$$

NCZ095-097-098-100-101-301900-
SOUTHERN COAST

CITY           SKY/WX    TMP DP  RH WIND       PRES   REMARKS
BEAUFORT       CLOUDY    81  67  62 VRB3      30.14F
CEDAR ISLAND   NOT AVBL
JACKSONVILLE   PTSUNNY   82  63  52 E6        30.14F
PINEY ISLAND   CLOUDY   N/A N/A N/A N5        30.13F
WILMINGTON     PTSUNNY   83  61  47 E8        30.15F


$$

NCZ011>013-027>030-043-044-078>080-089-090>093-098-301900-
COASTAL PLAIN

CITY           SKY/WX    TMP DP  RH WIND       PRES   REMARKS
AHOSKIE        MOSUNNY   84  58  42 NE3       30.14S
CLINTON        CLOUDY    84  65  51 CALM      30.15S
ELIZABETHTOWN  CLOUDY    84  61  45 SE5       30.15S
GOLDSBORO      PTSUNNY   86  63  46 E5        30.12F
GREENVILLE     CLOUDY    84  61  45 CALM      30.15F
HAVELOCK       CLOUDY    82  68  62 E6        30.15F
KENANSVILLE    MOSUNNY   83  61  46 CALM      30.15S
KINSTON        PTSUNNY   84  63  48 N3        30.14F
NEW BERN       CLOUDY    83  62  49 N7        30.15F
RICHLANDS      MOSUNNY   82  61  47 NE5       30.15S
ROCKY MOUNT    PTSUNNY   89  57  33 SW5       30.13F
WASHINGTON     CLOUDY    84  63  49 E8        30.13F
WHITEVILLE     PTSUNNY   82  65  56 E5        30.14S

$$

AMZ130-135-150-152-154-156-158-170-250-252-270-ANZ085-086-088-633-658-670-301900-
MARINE OBSERVATIONS

STATION/POSITION TIME  TEMP    WIND        PRES    WAVE   SWELL
                       AIR SEA DIR/SP/G            HT/PER HT/PER
                 (UTC) (F)     (DEG/KT/KT) (MB)    (FT/S) (FT/S)
CHESAPEAKE LIGHT 1800   77      70/  2/  2 1021.4
64 E VA BEACH    1750   78 78   50/  8/ 10 1020.3    4/10   3/10
DUCK             NOT AVBL
2 E DUCK         1711      79                N/A     3/11   2/11
OREGON INLET     NOT AVBL
13E OREGON INLT  1800      79                N/A     4/11   2/11
HATTERAS CG      NOT AVBL
DIAMOND BUOY     1750   79 83   20/  6/  8 1020.8    4/10   3/10
CAPE LOOKOUT     1800   79      60/  3/  4 1020.5
BEAUFORT LAB     NOT AVBL
30 SE NEW RVR IN 1708   79 81   70/  6/ 10 1021.4
30 SE NEW RVR IN 1725      81                N/A     4/ 9   2/11
27 SE WRIGHTSVLE 1700   76 82   60/  8/ 10   N/A
5 SE WRIGHTSVLE  1708   79 82   80/  8/ 12 1021.1
225 S CAPE HAT   1750   79 84  310/  4/ 10 1021.4    4/10   5/10
41 SE CHARLESTON 1750   78 84   50/  8/ 10 1020.3    4/11   3/11

$$


USA.gov is the U.S. government's official web portal to all federal, state and local government web resources and services.